Regional Weather Roundup
Issued by NWS

Home | Current Version | Previous Version | Graphics & Text | Print | Product List | Glossary Off
Versions: 1 2 3 4 5 6 7 8 9 10 11 12 13 14 15 16 17 18 19 20 21 22 23 24 25 26 27 28 29 30 31 32 33 34 35 36 37 38 39 40 41 42 43 44 45 46 47 48 49 50

000
ASUS43 KTOP 290708
RWRKS

WEATHER ROUNDUP FOR KANSAS
NATIONAL WEATHER SERVICE GOODLAND KS
200 AM CDT THU SEP 29 2016

NOTE:  "FAIR" INDICATES FEW OR NO CLOUDS BELOW 12,000 FEET WITH NO
SIGNIFICANT WEATHER AND/OR OBSTRUCTIONS TO VISIBILITY.

KSZ001>006-013>018-027>032-041>047-290800-
NORTHWEST KANSAS

CITY           SKY/WX    TMP DP  RH WIND       PRES   REMARKS
GOODLAND       CLEAR     47  38  71 S9        30.37S
HAYS           CLEAR     48  36  61 NE9       30.34S
HILL CITY      CLEAR     46  42  86 CALM      30.36R
RUSSELL        CLEAR     49  44  83 NE7       30.32S
$$

KSZ061>065-074>080-084>089-290800-
SOUTHWEST KANSAS

CITY           SKY/WX    TMP DP  RH WIND       PRES   REMARKS
DODGE CITY     CLOUDY    49  42  77 E7        30.33S
ELKHART          N/A     56  38  51 SE9         N/A
GARDEN CITY    CLOUDY    52  41  66 E6        30.34R
GREAT BEND     CLEAR     52  39  62 NE5       30.33S
LIBERAL        PTCLDY    57  37  47 E6        30.34S
PRATT          CLEAR     50  42  72 CALM      30.32S
$$

KSZ066>073-081>083-090>101-290800-
SOUTHEAST KANSAS

CITY           SKY/WX    TMP DP  RH WIND       PRES   REMARKS
CHANUTE        CLEAR     51  48  89 N5        30.27S
COFFEYVILLE    CLEAR     52  48  86 N6        30.26S
HUTCHINSON     CLEAR     51  45  79 CALM      30.32R
MEDICINE LODGE   N/A     51  46  83 NE5       30.31R
NEWTON         CLEAR     51  46  83 NE5       30.31S
PARSONS        CLEAR     52  48  86 N3        30.27F
WICHITA INTL   CLEAR     55  47  74 NE9       30.29S
WICHITA JABRA  CLEAR     50  47  89 NE6       30.29S
WICHITA MCCONL CLEAR     52  47  81 E6        30.29S
WINFIELD       CLEAR     52  47  83 NE5       30.29S
$$

KSZ007>012-019>026-033>040-048>060-102>105-290800-
NORTHEAST KANSAS

CITY           SKY/WX    TMP DP  RH WIND       PRES   REMARKS
CONCORDIA      CLEAR     49  45  86 N3        30.34S
EMPORIA        PTCLDY    50  47  89 N3        30.30S
LAWRENCE       CLEAR     48  47  96 NW6       30.29F
MANHATTAN      CLEAR     51  47  86 CALM      30.32S
MARYSVILLE     CLEAR     45  45 100 N6        30.34S
OLATHE IND     CLEAR     50  47  89 NW6       30.29S
OLATHE EXE     CLEAR     52  46  80 NW6       30.28R
SALINA         CLEAR     52  46  80 N5        30.33S
TOPEKA BILLARD CLEAR     51  47  86 N5        30.30S
TOPEKA FORBES  CLEAR     52  48  86 N5        30.30S
$$




USA.gov is the U.S. government's official web portal to all federal, state and local government web resources and services.